Location: Unspecified
(52.1971°N, 0.0000°E)
Time: 16:59:09
(UTC+00:00)

Tiangong 2 - Visible Passes

Search period start: 24 May 2019 00:00
Search period end: 03 June 2019 00:00
Orbit: 379 x 387 km, 42.8° (Epoch: 24 May)

Date Brightness Start Highest point End Pass type
(mag) Time Alt. Az. Time Alt. Az. Time Alt. Az.
24 May 3.1 21:47:35 10° SW 21:49:05 13° SSW 21:49:05 13° SSW visible
25 May 3.1 20:47:35 10° SW 20:49:28 15° S 20:51:20 10° SSE visible
26 May 3.3 21:24:31 10° SW 21:25:35 11° SSW 21:26:28 10° S visible
